Location: Cerda�ola
(41.4919°N, 2.1403°E)
Time: 02:09:21
(UTC+00:00)

STARLINK-1110 - Pass Details

Date: 29 March 2020
Orbit: 548 x 551 km, 53.0° (Epoch: 31 May)

Event Time Altitude Azimuth Distance (km) Brightness Sun altitude
Rises 19:35:49 0° 309° (NW) 2,719 8.6 -15.8°
Reaches altitude 10° 19:38:05 10° 313° (NW) 1,823 7.4 -16.2°
Maximum altitude 19:42:11 63° 35° (NE) 613 3.7 -16.9°
Enters shadow 19:43:39 37° 102° (ESE) 865 4.1 -17.1°
